KM4KBD Weather Reports


time (UTC)temp
C
wind
direction
speed
KPH
gust
KPH
rain 1hr
cm
rain 24hr
cm
rain mn
cm
humidity
%
barometer
mb
20260903060021 24 36 0.0 0.0 0.00 0.00 0.00 88 1023.7
20260903055518 24 38 1.6 1.6 0.00 0.00 0.00 88 1023.8
20260903055017 24 20 0.0 0.0 0.00 0.00 0.00 88 1023.8
20260903054513 25 15 0.0 0.0 0.00 0.00 0.00 87 1023.7
20260903054009 25 10 0.0 0.0 0.00 0.00 0.00 86 1023.9
20260903053508 25 9 0.0 1.6 0.00 0.00 0.00 84 1023.9
20260903053005 25 8 0.0 0.0 0.00 0.00 0.00 84 1023.9
20260903052500 25 3 0.0 0.0 0.00 0.00 0.00 84 1023.8
20260903051956 25 329 0.0 1.6 0.00 0.00 0.00 84 1023.8
20260903051450 25 335 0.0 1.6 0.00 0.00 0.00 84 1023.9
20260903050947 25 52 1.6 1.6 0.00 0.00 0.00 84 1023.9
20260903050445 25 1 1.6 1.6 0.00 0.00 0.00 84 1023.7
20260903045940 25 112 3.2 3.2 0.00 0.00 0.00 85 1023.7
20260903045436 25 240 1.6 1.6 0.00 0.00 0.00 85 1023.7
20260903044932 25 9 1.6 1.6 0.00 0.00 0.00 85 1023.6
20260903044432 25 249 1.6 1.6 0.00 0.00 0.00 85 1023.6
20260903043929 25 301 0.0 1.6 0.00 0.00 0.00 85 1023.8
20260903043424 25 34 1.6 1.6 0.00 0.00 0.00 84 1023.5
20260903042922 25 102 1.6 1.6 0.00 0.00 0.00 84 1023.6
20260903042418 25 40 1.6 1.6 0.00 0.00 0.00 84 1023.7
20260903041914 25 54 0.0 1.6 0.00 0.00 0.00 84 1023.6
20260903041410 26 36 0.0 0.0 0.00 0.00 0.00 84 1023.7
20260903040906 26 3 1.6 1.6 0.00 0.00 0.00 83 1023.5
20260903040404 26 22 1.6 1.6 0.00 0.00 0.00 83 1023.6
20260903035901 26 54 1.6 1.6 0.00 0.00 0.00 83 1023.9
20260903035356 26 108 1.6 3.2 0.00 0.00 0.00 83 1023.6
20260903034851 26 164 3.2 3.2 0.00 0.00 0.00 83 1023.8
20260903034346 26 77 1.6 1.6 0.00 0.00 0.00 83 1023.7
20260903033841 26 31 1.6 1.6 0.00 0.00 0.00 83 1023.8
20260903033337 26 58 1.6 1.6 0.00 0.00 0.00 83 1023.8
20260903032836 26 0 0.0 0.0 0.00 0.00 0.00 82 1023.7
20260903032332 26 12 1.6 1.6 0.00 0.00 0.00 81 1023.6
20260903031827 27 149 3.2 3.2 0.00 0.00 0.00 80 1023.8
20260903031326 27 105 1.6 3.2 0.00 0.00 0.00 79 1023.9
20260903030822 27 137 3.2 3.2 0.00 0.00 0.00 78 1024.0
20260903030318 27 98 3.2 3.2 0.00 0.00 0.00 78 1023.9
20260903025814 27 91 1.6 1.6 0.00 0.00 0.00 77 1023.8
20260903025309 27 92 1.6 3.2 0.00 0.00 0.00 77 1023.9
20260903024803 27 143 1.6 3.2 0.00 0.00 0.00 76 1023.9
20260903024303 27 65 1.6 1.6 0.00 0.00 0.00 76 1023.7
20260903023759 27 84 1.6 3.2 0.00 0.00 0.00 75 1023.9
20260903023255 27 34 1.6 1.6 0.00 0.00 0.00 76 1024.0
20260903022754 27 74 3.2 3.2 0.00 0.00 0.00 75 1023.7
20260903022253 27 38 1.6 1.6 0.00 0.00 0.00 75 1024.0
20260903021753 27 43 0.0 0.0 0.00 0.00 0.00 76 1023.9
20260903021248 28 43 0.0 1.6 0.00 0.00 0.00 74 1024.0
20260903020743 28 43 1.6 1.6 0.00 0.00 0.00 72 1024.1
20260903020243 27 42 1.6 1.6 0.00 0.00 0.00 73 1024.0
20260903015738 28 41 0.0 0.0 0.00 0.00 0.00 73 1024.1
20260903015234 28 41 0.0 0.0 0.00 0.00 0.00 71 1024.0
20260903014729 28 39 1.6 1.6 0.00 0.00 0.00 71 1024.1
20260903014228 27 63 1.6 1.6 0.00 0.00 0.00 73 1024.0
20260903013724 27 15 1.6 1.6 0.00 0.00 0.00 75 1023.9
20260903013223 27 43 1.6 1.6 0.00 0.00 0.00 75 1023.8
20260903012721 27 50 1.6 1.6 0.00 0.00 0.00 75 1024.0
20260903012221 28 49 0.0 0.0 0.00 0.00 0.00 71 1023.7
20260903011716 28 49 0.0 0.0 0.00 0.00 0.00 69 1023.4
20260903011210 29 49 0.0 0.0 0.00 0.00 0.00 67 1023.8
20260903010706 29 49 0.0 0.0 0.00 0.00 0.00 66 1023.5
20260903010205 29 49 0.0 0.0 0.00 0.00 0.00 67 1023.5
20260903005704 29 49 0.0 0.0 0.00 0.00 0.00 68 1023.5
20260903005159 29 49 0.0 0.0 0.00 0.00 0.00 67 1023.6
20260903004655 29 49 1.6 1.6 0.00 0.00 0.00 68 1023.4
20260903004149 29 49 0.0 0.0 0.00 0.00 0.00 66 1023.3
20260903003645 29 49 0.0 0.0 0.00 0.00 0.00 67 1023.3
20260903003140 30 49 0.0 0.0 0.00 0.00 0.00 67 1023.2
20260903002636 29 49 0.0 0.0 0.00 0.00 0.00 68 1023.3
20260903002131 30 49 0.0 0.0 0.00 0.00 0.00 68 1023.4
20260903001625 30 49 0.0 0.0 0.00 0.00 0.00 68 1023.3
20260903001125 30 46 1.6 1.6 0.00 0.00 0.00 66 1023.1
20260903000621 31 4 0.0 1.6 0.00 0.00 0.00 63 1023.3
20260903000120 32 2 0.0 0.0 0.00 0.00 0.00 61 1023.2
20260902235618 33 6 0.0 0.0 0.00 0.00 0.00 60 1023.4
20260902235114 33 319 0.0 0.0 0.00 0.00 0.00 57 1023.4
20260902234608 33 319 0.0 0.0 0.00 0.00 0.00 55 1023.5
20260902234106 34 319 0.0 0.0 0.00 0.00 0.00 54 1023.3
20260902233602 35 319 0.0 0.0 0.00 0.00 0.00 52 1023.4
20260902233056 35 319 0.0 0.0 0.00 0.00 0.00 52 1023.5
20260902232555 35 319 0.0 0.0 0.00 0.00 0.00 52 1023.5
20260902232049 35 319 0.0 0.0 0.00 0.00 0.00 52 1023.5
20260902231544 35 319 0.0 1.6 0.00 0.00 0.00 53 1023.5
20260902231038 35 319 0.0 1.6 0.00 0.00 0.00 52 1023.4
20260902230533 35 324 1.6 1.6 0.00 0.00 0.00 53 1023.5
20260902230032 34 314 3.2 3.2 0.00 0.00 0.00 53 1023.5
20260902225528 33 299 3.2 3.2 0.00 0.00 0.00 54 1023.6
20260902225027 33 312 1.6 3.2 0.00 0.00 0.00 54 1023.6
20260902224526 34 308 3.2 3.2 0.00 0.00 0.00 54 1023.7
20260902224022 34 314 1.6 3.2 0.00 0.00 0.00 54 1023.6
20260902223518 34 318 3.2 3.2 0.00 0.00 0.00 51 1023.6
20260902223017 35 252 3.2 3.2 0.00 0.00 0.00 52 1023.5
20260902222516 34 263 3.2 3.2 0.00 0.00 0.00 53 1023.5
20260902222015 34 281 3.2 3.2 0.00 0.00 0.00 52 1023.5
20260902221514 33 313 8.0 9.7 0.00 0.00 0.00 53 1023.7
20260902221010 34 325 4.8 4.8 0.00 0.00 0.00 51 1023.8
20260902220505 34 268 6.4 8.0 0.00 0.00 0.00 51 1023.5
20260902215959 35 250 4.8 8.0 0.00 0.00 0.00 51 1023.9
20260902215455 35 302 3.2 3.2 0.00 0.00 0.00 54 1023.6
20260902214946 33 269 8.0 9.7 0.00 0.00 0.00 52 1023.8
20260902214445 33 311 8.0 11.3 0.00 0.00 0.00 53 1023.8
20260902213944 33 319 11.3 12.9 0.00 0.00 0.00 53 1023.6
20260902213441 34 324 6.4 9.7 0.00 0.00 0.00 53 1023.5
20260902212939 34 269 6.4 8.0 0.00 0.00 0.00 53 1023.6
20260902212436 34 317 6.4 8.0 0.00 0.00 0.00 53 1023.8
20260902211932 35 313 4.8 9.7 0.00 0.00 0.00 52 1023.7
20260902211428 35 297 4.8 8.0 0.00 0.00 0.00 51 1023.7
20260902210923 35 305 8.0 9.7 0.00 0.00 0.00 53 1023.9
20260902210422 35 283 8.0 9.7 0.00 0.00 0.00 54 1023.8
20260902205915 35 230 4.8 4.8 0.00 0.00 0.00 51 1023.9
20260902205410 35 302 6.4 9.7 0.00 0.00 0.00 52 1023.8
20260902204906 35 309 4.8 8.0 0.00 0.00 0.00 53 1023.9
20260902204405 35 309 4.8 4.8 0.00 0.00 0.00 51 1023.9
20260902203901 33 317 3.2 3.2 0.00 0.00 0.00 53 1023.9
20260902203356 35 304 4.8 8.0 0.00 0.00 0.00 50 1023.8
20260902202855 35 302 4.8 8.0 0.00 0.00 0.00 51 1023.9
20260902202351 35 298 8.0 11.3 0.00 0.00 0.00 51 1023.9
20260902201848 35 283 4.8 4.8 0.00 0.00 0.00 49 1024.0
20260902201347 34 317 4.8 4.8 0.00 0.00 0.00 52 1024.2
20260902200842 35 312 9.7 14.5 0.00 0.00 0.00 49 1024.2
20260902200338 34 271 4.8 8.0 0.00 0.00 0.00 50 1024.4
20260902195833 34 294 8.0 9.7 0.00 0.00 0.00 50 1024.4
20260902195332 34 318 4.8 4.8 0.00 0.00 0.00 54 1024.4
20260902194827 34 302 6.4 8.0 0.00 0.00 0.00 52 1024.7
20260902194322 34 304 9.7 12.9 0.00 0.00 0.00 51 1024.4
20260902193818 35 310 8.0 9.7 0.00 0.00 0.00 52 1024.5
20260902193314 35 277 4.8 4.8 0.00 0.00 0.00 48 1024.7
20260902192812 34 291 11.3 12.9 0.00 0.00 0.00 50 1024.6
20260902192311 33 301 3.2 3.2 0.00 0.00 0.00 54 1024.8
20260902191811 34 286 6.4 8.0 0.00 0.00 0.00 56 1024.5
20260902191306 35 279 4.8 4.8 0.00 0.00 0.00 54 1024.8
20260902190806 34 326 3.2 3.2 0.00 0.00 0.00 51 1024.8
20260902190305 33 289 8.0 11.3 0.00 0.00 0.00 54 1024.8
20260902185802 35 243 3.2 3.2 0.00 0.00 0.00 51 1024.7
20260902185257 33 321 3.2 4.8 0.00 0.00 0.00 54 1024.8
20260902184753 34 317 11.3 12.9 0.00 0.00 0.00 54 1025.2
20260902184248 34 214 6.4 8.0 0.00 0.00 0.00 53 1025.2
20260902183744 35 267 6.4 9.7 0.00 0.00 0.00 56 1025.2
20260902183240 35 215 4.8 9.7 0.00 0.00 0.00 52 1025.2
20260902182736 34 305 4.8 4.8 0.00 0.00 0.00 52 1025.1
20260902182232 34 296 8.0 8.0 0.00 0.00 0.00 56 1025.3
20260902181728 33 215 4.8 4.8 0.00 0.00 0.00 54 1025.3
20260902181228 34 309 11.3 11.3 0.00 0.00 0.00 53 1025.3
20260902180723 34 292 9.7 11.3 0.00 0.00 0.00 53 1025.5
20260902180219 33 249 8.0 8.0 0.00 0.00 0.00 52 1025.5
20260902175719 34 295 4.8 8.0 0.00 0.00 0.00 54 1025.5
20260902175215 33 296 8.0 11.3 0.00 0.00 0.00 53 1025.5
20260902174710 33 319 4.8 4.8 0.00 0.00 0.00 53 1025.7
20260902174206 33 297 8.0 9.7 0.00 0.00 0.00 59 1025.7
20260902173701 34 238 4.8 8.0 0.00 0.00 0.00 51 1025.8
20260902173156 33 8 6.4 8.0 0.00 0.00 0.00 52 1025.8
20260902172651 33 307 11.3 12.9 0.00 0.00 0.00 53 1025.7
20260902172150 33 29 0.0 0.0 0.00 0.00 0.00 53 1025.8
20260902171645 33 295 8.0 8.0 0.00 0.00 0.00 52 1025.8
20260902171141 33 247 6.4 9.7 0.00 0.00 0.00 60 1026.0
20260902170637 33 235 6.4 8.0 0.00 0.00 0.00 57 1026.0
20260902170132 33 308 8.0 9.7 0.00 0.00 0.00 57 1026.0
20260902165627 33 328 1.6 1.6 0.00 0.00 0.00 59 1026.0
20260902165126 33 319 1.6 1.6 0.00 0.00 0.00 60 1026.0
20260902164622 33 286 4.8 9.7 0.00 0.00 0.00 58 1025.9
20260902164120 33 340 1.6 1.6 0.00 0.00 0.00 58 1026.1
20260902163616 33 337 0.0 1.6 0.00 0.00 0.00 60 1026.3
20260902163115 32 270 8.0 8.0 0.00 0.00 0.00 63 1026.4
20260902162614 32 314 6.4 8.0 0.00 0.00 0.00 63 1026.6
20260902162109 32 322 4.8 4.8 0.00 0.00 0.00 62 1026.5
20260902161604 32 291 3.2 3.2 0.00 0.00 0.00 61 1026.7
20260902161100 32 326 4.8 4.8 0.00 0.00 0.00 62 1026.6
20260902160556 32 312 8.0 8.0 0.00 0.00 0.00 64 1026.5
20260902160051 32 282 8.0 9.7 0.00 0.00 0.00 64 1026.6
20260902155544 31 288 3.2 3.2 0.00 0.00 0.00 66 1026.7
20260902155043 31 285 3.2 3.2 0.00 0.00 0.00 65 1026.5
20260902154538 32 318 3.2 4.8 0.00 0.00 0.00 67 1026.8
20260902154038 32 316 3.2 3.2 0.00 0.00 0.00 66 1026.8
20260902153537 32 333 0.0 1.6 0.00 0.00 0.00 65 1026.6
20260902153033 31 305 1.6 3.2 0.00 0.00 0.00 66 1026.7
20260902152529 31 279 3.2 4.8 0.00 0.00 0.00 67 1026.8
20260902152024 31 317 4.8 8.0 0.00 0.00 0.00 69 1026.7
20260902151520 31 266 8.0 9.7 0.00 0.00 0.00 69 1026.5
20260902151019 30 315 8.0 9.7 0.00 0.00 0.00 68 1026.6
20260902150515 30 357 1.6 1.6 0.00 0.00 0.00 69 1026.6
20260902150010 30 303 3.2 3.2 0.00 0.00 0.00 69 1026.7
20260902145505 30 299 4.8 4.8 0.00 0.00 0.00 70 1026.6
20260902145004 30 274 4.8 4.8 0.00 0.00 0.00 70 1026.7
20260902144501 30 248 3.2 3.2 0.00 0.00 0.00 72 1026.4
20260902143956 30 232 4.8 4.8 0.00 0.00 0.00 72 1026.5
20260902143452 29 295 6.4 9.7 0.00 0.00 0.00 71 1026.4
20260902142947 29 280 4.8 4.8 0.00 0.00 0.00 72 1026.7
20260902142443 29 286 4.8 4.8 0.00 0.00 0.00 73 1026.5
20260902141943 29 247 6.4 9.7 0.00 0.00 0.00 73 1026.6
20260902141438 29 205 6.4 8.0 0.00 0.00 0.00 72 1026.8
20260902140937 28 317 9.7 12.9 0.00 0.00 0.00 73 1026.7
20260902140433 28 282 8.0 9.7 0.00 0.00 0.00 75 1026.4
20260902135932 28 282 9.7 11.3 0.00 0.00 0.00 73 1026.4
20260902135429 28 279 4.8 4.8 0.00 0.00 0.00 76 1026.5
20260902134927 28 222 6.4 9.7 0.00 0.00 0.00 77 1026.4
20260902134424 27 271 4.8 4.8 0.00 0.00 0.00 81 1026.2
20260902133919 27 317 3.2 3.2 0.00 0.00 0.00 84 1026.6
20260902133418 26 310 1.6 3.2 0.00 0.00 0.00 86 1026.5
20260902132913 26 319 0.0 0.0 0.00 0.00 0.00 87 1026.6
20260902132409 26 314 0.0 1.6 0.00 0.00 0.00 87 1026.5
20260902131903 26 236 4.8 4.8 0.00 0.00 0.00 86 1026.5
20260902131401 26 217 4.8 8.0 0.00 0.00 0.00 85 1026.4
20260902130859 25 336 0.0 0.0 0.00 0.00 0.00 87 1026.3
20260902130356 25 302 1.6 1.6 0.00 0.00 0.00 88 1026.4
20260902125851 25 245 4.8 4.8 0.00 0.00 0.00 88 1026.3
20260902125347 24 284 0.0 1.6 0.00 0.00 0.00 90 1026.2
20260902124843 24 231 1.6 1.6 0.00 0.00 0.00 91 1026.2
20260902124339 23 255 0.0 1.6 0.00 0.00 0.00 92 1026.1
20260902123839 23 344 0.0 0.0 0.00 0.00 0.00 93 1026.2
20260902123335 23 334 0.0 1.6 0.00 0.00 0.00 94 1026.2
20260902122833 23 316 0.0 1.6 0.00 0.00 0.00 95 1026.0
20260902122330 23 275 1.6 1.6 0.00 0.00 0.00 95 1026.2
20260902121830 22 349 1.6 1.6 0.00 0.00 0.00 95 1026.2
20260902121325 22 330 0.0 0.0 0.00 0.00 0.00 96 1026.4
20260902120820 22 118 1.6 1.6 0.00 0.00 0.00 96 1026.1
20260902120316 22 347 0.0 0.0 0.00 0.00 0.00 97 1026.3
20260902115810 22 348 0.0 0.0 0.00 0.00 0.00 97 1026.1
20260902115309 22 350 0.0 0.0 0.00 0.00 0.00 98 1026.2
20260902114803 21 36 0.0 1.6 0.00 0.00 0.00 99 1026.1
20260902114300 21 246 0.0 1.6 0.00 0.00 0.00 99 1026.0
20260902113754 21 8 0.0 1.6 0.00 0.00 0.00 99 1025.7
20260902113249 21 7 0.0 0.0 0.00 0.00 0.00 99 1025.7
20260902112748 21 7 0.0 0.0 0.00 0.00 0.00 99 1025.7
20260902112246 20 7 0.0 0.0 0.00 0.00 0.00 99 1025.8
20260902111740 21 7 0.0 0.0 0.00 0.00 0.00 99 1025.7
20260902111237 21 7 0.0 0.0 0.00 0.00 0.00 99 1025.4
20260902110732 21 8 0.0 0.0 0.00 0.00 0.00 99 1025.7
20260902110228 21 8 0.0 0.0 0.00 0.00 0.00 99 1025.7
20260902105727 21 7 0.0 0.0 0.00 0.00 0.00 99 1025.6
20260902105222 20 7 0.0 0.0 0.00 0.00 0.00 99 1025.7
20260902104718 21 7 0.0 0.0 0.00 0.00 0.00 99 1025.7
20260902104214 21 7 0.0 0.0 0.00 0.00 0.00 99 1025.4
20260902103713 21 7 0.0 0.0 0.00 0.00 0.00 99 1025.5
20260902103208 21 7 0.0 0.0 0.00 0.00 0.00 99 1025.4
20260902102703 21 7 0.0 0.0 0.00 0.00 0.00 99 1025.4
20260902102201 21 7 0.0 0.0 0.00 0.00 0.00 99 1025.4
20260902101656 21 7 0.0 0.0 0.00 0.00 0.00 99 1025.4
20260902101155 21 7 0.0 0.0 0.00 0.00 0.00 99 1025.2
20260902100650 21 7 0.0 0.0 0.00 0.00 0.00 98 1025.2
20260902100145 21 7 0.0 0.0 0.00 0.00 0.00 98 1025.0
20260902095644 21 7 0.0 0.0 0.00 0.00 0.00 99 1025.3
20260902095144 21 359 0.0 0.0 0.00 0.00 0.00 99 1025.1
20260902094639 21 357 0.0 0.0 0.00 0.00 0.00 99 1025.2
20260902094135 21 359 0.0 0.0 0.00 0.00 0.00 99 1025.1
20260902093635 21 1 0.0 0.0 0.00 0.00 0.00 99 1025.1
20260902093130 21 1 0.0 0.0 0.00 0.00 0.00 99 1025.3
20260902092630 21 1 0.0 0.0 0.00 0.00 0.00 99 1025.2
20260902092125 21 1 0.0 0.0 0.00 0.00 0.00 98 1025.2
20260902091620 21 1 0.0 0.0 0.00 0.00 0.00 98 1025.1
20260902091117 21 1 0.0 0.0 0.00 0.00 0.00 97 1025.2
20260902090612 21 1 0.0 0.0 0.00 0.00 0.00 97 1025.0
20260902090111 22 1 0.0 0.0 0.00 0.00 0.00 97 1025.2
20260902085612 22 1 0.0 0.0 0.00 0.00 0.00 97 1025.0
20260902085106 22 0 0.0 0.0 0.00 0.00 0.00 97 1025.1
20260902084603 22 357 0.0 0.0 0.00 0.00 0.00 96 1024.6
20260902084059 22 357 0.0 0.0 0.00 0.00 0.00 96 1024.6
20260902083554 22 353 0.0 0.0 0.00 0.00 0.00 96 1024.7
20260902083053 22 350 0.0 0.0 0.00 0.00 0.00 96 1024.7
20260902082549 22 0 0.0 0.0 0.00 0.00 0.00 95 1024.6
20260902082045 22 34 1.6 1.6 0.00 0.00 0.00 95 1024.5
20260902081542 22 63 1.6 1.6 0.00 0.00 0.00 96 1024.7
20260902081041 22 11 0.0 0.0 0.00 0.00 0.00 96 1024.8
20260902080537 22 354 0.0 0.0 0.00 0.00 0.00 96 1024.6
20260902080033 22 43 1.6 1.6 0.00 0.00 0.00 97 1024.5
20260902075533 22 42 0.0 0.0 0.00 0.00 0.00 98 1024.5
20260902075029 22 7 0.0 0.0 0.00 0.00 0.00 98 1024.8
20260902074525 22 7 0.0 0.0 0.00 0.00 0.00 98 1024.8
20260902074024 22 8 0.0 0.0 0.00 0.00 0.00 99 1024.6
20260902073520 22 357 0.0 0.0 0.00 0.00 0.00 99 1024.5
20260902073017 21 348 0.0 0.0 0.00 0.00 0.00 99 1025.0
20260902072512 21 347 0.0 0.0 0.00 0.00 0.00 99 1025.0
20260902072009 21 347 0.0 0.0 0.00 0.00 0.00 99 1024.5
20260902071508 21 347 0.0 0.0 0.00 0.00 0.00 98 1024.7
20260902071005 21 347 0.0 0.0 0.00 0.00 0.00 98 1024.6
20260902070500 22 347 0.0 0.0 0.00 0.00 0.00 98 1024.7
20260902065959 22 347 0.0 0.0 0.00 0.00 0.00 98 1024.8
20260902065454 22 347 0.0 0.0 0.00 0.00 0.00 97 1024.7
20260902064948 22 347 0.0 0.0 0.00 0.00 0.00 97 1024.6
20260902064444 22 347 0.0 0.0 0.00 0.00 0.00 97 1024.7
20260902063940 22 348 0.0 0.0 0.00 0.00 0.00 97 1024.8
20260902063439 22 347 0.0 0.0 0.00 0.00 0.00 96 1024.4
20260902062935 22 347 0.0 0.0 0.00 0.00 0.00 96 1024.8
20260902062434 22 347 0.0 0.0 0.00 0.00 0.00 96 1024.8
20260902061929 22 349 0.0 0.0 0.00 0.00 0.00 96 1025.1
20260902061424 23 9 0.0 0.0 0.00 0.00 0.00 96 1024.8
20260902060920 23 46 1.6 1.6 0.00 0.00 0.00 96 1024.8